Regional Weather Roundup
Issued by NWS Little Rock, AR

Home | Current Version | Previous Version | Graphics & Text | Print | Product List | Glossary On
Versions: 1 2 3 4 5 6 7 8 9 10 11 12 13 14 15 16 17 18 19 20 21 22 23 24 25 26 27 28 29 30 31 32 33
000
ASUS44 KLZK 190105
RWRLZK

WEATHER ROUNDUP FOR ARKANSAS
NATIONAL WEATHER SERVICE LITTLE ROCK AR
700 PM CST THU JAN 18 2018

NOTE: "FAIR" INDICATES FEW OR NO CLOUDS BELOW 12,000 FEET WITH NO
SIGNIFICANT WEATHER AND/OR OBSTRUCTIONS TO VISIBILITY.

ARZ001-003-010-029-190200-
NORTHWEST ARKANSAS

CITY           SKY/WX    TMP DP  RH WIND       PRES   REMARKS
FAYETTEVILLE   CLEAR     33   7  33 SW7       30.25R WCI  27
FORT SMITH     CLEAR     34   8  33 SE5       30.28F WCI  30
HARRISON       CLEAR     34   6  31 S8        30.24R WCI  27
BENTONVILLE    CLEAR     33  10  38 S8        30.24S WCI  26
ROGERS         CLEAR     32  11  41 S9        30.23S WCI  24
SILOAM SPGS    CLEAR     33   9  36 S6        30.24R WCI  28
HIGHFILL       CLEAR     31   9  39 S7        30.23R WCI  24
SPRINGDALE     CLEAR     34   5  29 S6        30.25R WCI  29
$$

ARZ004-005-016-190200-
NORTH CENTRAL ARKANSAS

CITY           SKY/WX    TMP DP  RH WIND       PRES   REMARKS
BATESVILLE     FAIR      31  18  58 SE6       30.34  WCI  25
FLIPPIN        CLEAR     38   3  23 SW8       30.27R
MTN HOME       CLEAR     36   6  28 SW8       30.24R
$$

ARZ040-041-190200-
WEST CENTRAL ARKANSAS

CITY           SKY/WX    TMP DP  RH WIND       PRES   REMARKS
MENA           CLEAR     34   9  35 CALM      30.32F
MOUNT IDA      CLEAR     35  12  38 VRB3      30.31S
$$

ARZ009-017-025-026-028-190200-
NORTHEAST ARKANSAS

CITY           SKY/WX    TMP DP  RH WIND       PRES   REMARKS
JONESBORO      FAIR      28  18  66 S8        30.36S WCI  20
NEWPORT        FAIR      28  21  75 S10       30.36S WCI  19
WALNUT RIDGE   FAIR      29  22  75 S13       30.33F WCI  19
BLYTHEVILLE    FAIR      23  17  78 SW8       30.37F WCI  14
$$

ARZ022-023-033-042-044-190200-
CENTRAL ARKANSAS

CITY           SKY/WX    TMP DP  RH WIND       PRES   REMARKS
LITTLE ROCK    FAIR      32  13  45 S7        30.37S WCI  26
N LITTLE ROCK    N/A     34  15  46 S8        30.33S WCI  27
JACKSONVILLE   FAIR      31  20  65 S7        30.35S WCI  24
SEARCY         FAIR      28  20  71 S3        30.37S
HOT SPRINGS    FAIR      35  14  42 S3        30.37R
RUSSELLVILLE   CLEAR     28  14  55 CALM      30.31S
CLINTON        FAIR      25  14  63 CALM      30.33R
$$

ARZ036-190200-
EAST ARKANSAS

CITY           SKY/WX    TMP DP  RH WIND       PRES   REMARKS
WEST MEMPHIS   FAIR      24  20  84 S6        30.38F WCI  17
$$

ARZ050-053-066-070-073-190200-
SOUTHWEST ARKANSAS

CITY           SKY/WX    TMP DP  RH WIND       PRES   REMARKS
ARKADELPHIA    FAIR      26  21  81 CALM      30.39F
CAMDEN         FAIR      28  18  64 CALM      30.39F
TEXARKANA      FAIR      32  18  56 S8        30.38R WCI  25
EL DORADO      FAIR      28  20  71 CALM      30.40R
DE QUEEN       CLEAR     26  14  60 CALM      30.35S
$$

ARZ056-057-069-190200-
SOUTHEAST ARKANSAS

CITY           SKY/WX    TMP DP  RH WIND       PRES   REMARKS
PINE BLUFF     FAIR      30  25  81 E3        30.40R
STUTTGART      FAIR      31  21  66 S10       30.39S WCI  22
MONTICELLO     FAIR      30  18  60 S5        30.39F WCI  25

$$






USA.gov is the U.S. government's official web portal to all federal, state and local government web resources and services.